TimeEDT,TemperatureF,Dew PointF,Humidity,Sea Level PressureIn,VisibilityMPH,Wind Direction,Wind SpeedMPH,Gust SpeedMPH,PrecipitationIn,Events,Conditions,WindDirDegrees,DateUTC
12:15 AM,71.6,68.0,88,29.86,10.0,Calm,Calm,-,N/A,,Scattered Clouds,0,2013-07-01 04:15:00
12:35 AM,71.6,68.0,88,29.86,10.0,Calm,Calm,-,N/A,,Scattered Clouds,0,2013-07-01 04:35:00
12:55 AM,71.6,68.0,88,29.86,10.0,SE,5.8,-,N/A,,Scattered Clouds,140,2013-07-01 04:55:00
1:15 AM,71.6,69.8,94,29.86,10.0,SSE,3.5,-,N/A,,Mostly Cloudy,160,2013-07-01 05:15:00
1:35 AM,71.6,69.8,94,29.86,10.0,SE,4.6,-,N/A,,Scattered Clouds,140,2013-07-01 05:35:00
1:55 AM,71.6,68.0,88,29.86,10.0,Calm,Calm,-,N/A,,Clear,0,2013-07-01 05:55:00
2:15 AM,71.6,68.0,88,29.85,10.0,Calm,Calm,-,N/A,,Clear,0,2013-07-01 06:15:00
2:35 AM,69.8,68.0,94,29.85,10.0,Calm,Calm,-,N/A,,Clear,0,2013-07-01 06:35:00
2:55 AM,71.6,68.0,88,29.85,10.0,SSE,3.5,-,N/A,,Scattered Clouds,150,2013-07-01 06:55:00
3:15 AM,71.6,68.0,88,29.85,10.0,South,5.8,-,N/A,,Mostly Cloudy,170,2013-07-01 07:15:00
3:35 AM,71.6,68.0,88,29.85,10.0,South,3.5,-,N/A,Rain,Light Rain,190,2013-07-01 07:35:00
3:55 AM,69.8,69.8,100,29.85,10.0,Calm,Calm,-,N/A,,Scattered Clouds,0,2013-07-01 07:55:00
4:15 AM,69.8,69.8,100,29.86,10.0,Calm,Calm,-,N/A,,Mostly Cloudy,0,2013-07-01 08:15:00
4:35 AM,69.8,69.8,100,29.86,10.0,Calm,Calm,-,N/A,,Mostly Cloudy,0,2013-07-01 08:35:00
4:55 AM,69.8,69.8,100,29.86,10.0,Calm,Calm,-,N/A,,Overcast,0,2013-07-01 08:55:00
5:15 AM,69.8,69.8,100,29.88,10.0,Calm,Calm,-,N/A,,Overcast,0,2013-07-01 09:15:00
5:35 AM,69.8,69.8,100,29.87,10.0,Calm,Calm,-,N/A,,Overcast,0,2013-07-01 09:35:00
5:55 AM,69.8,69.8,100,29.88,10.0,SE,3.5,-,N/A,,Overcast,140,2013-07-01 09:55:00
6:15 AM,69.8,69.8,100,29.89,10.0,Calm,Calm,-,N/A,,Overcast,0,2013-07-01 10:15:00
6:35 AM,69.8,69.8,100,29.89,10.0,South,3.5,-,N/A,,Overcast,180,2013-07-01 10:35:00
6:55 AM,69.8,69.8,100,29.90,10.0,South,3.5,-,N/A,,Overcast,180,2013-07-01 10:55:00
7:15 AM,69.8,69.8,100,29.91,10.0,South,3.5,-,N/A,,Scattered Clouds,180,2013-07-01 11:15:00
7:35 AM,71.6,69.8,94,29.91,10.0,South,3.5,-,N/A,,Mostly Cloudy,170,2013-07-01 11:35:00
7:55 AM,71.6,69.8,94,29.90,10.0,SSE,3.5,-,N/A,,Overcast,160,2013-07-01 11:55:00
8:15 AM,73.4,69.8,88,29.91,10.0,South,5.8,-,N/A,,Scattered Clouds,180,2013-07-01 12:15:00
8:35 AM,73.4,71.6,94,29.92,10.0,South,8.1,-,N/A,,Scattered Clouds,180,2013-07-01 12:35:00
8:55 AM,75.2,71.6,89,29.92,10.0,SSE,5.8,-,N/A,,Mostly Cloudy,160,2013-07-01 12:55:00
9:15 AM,75.2,69.8,83,29.92,10.0,South,4.6,-,N/A,,Scattered Clouds,180,2013-07-01 13:15:00
9:35 AM,75.2,69.8,83,29.92,10.0,SSE,6.9,-,N/A,,Scattered Clouds,160,2013-07-01 13:35:00
9:55 AM,75.2,69.8,83,29.92,10.0,SSE,8.1,-,N/A,,Scattered Clouds,160,2013-07-01 13:55:00
10:15 AM,75.2,69.8,83,29.92,10.0,South,6.9,-,N/A,Rain,Light Rain,180,2013-07-01 14:15:00
10:35 AM,73.4,69.8,88,29.93,10.0,South,4.6,-,N/A,Rain,Rain,170,2013-07-01 14:35:00
10:55 AM,73.4,71.6,94,29.94,7.0,South,4.6,-,N/A,Rain,Rain,170,2013-07-01 14:55:00
11:15 AM,71.6,71.6,100,29.93,7.0,SE,3.5,-,0.01,Rain,Light Rain,140,2013-07-01 15:15:00
11:35 AM,73.4,71.6,94,29.93,7.0,SE,4.6,-,0.01,Rain,Light Rain,130,2013-07-01 15:35:00
11:55 AM,73.4,71.6,94,29.94,10.0,South,5.8,-,0.01,,Scattered Clouds,170,2013-07-01 15:55:00
12:15 PM,73.4,71.6,94,29.93,10.0,SSE,5.8,-,N/A,,Mostly Cloudy,150,2013-07-01 16:15:00
12:35 PM,73.4,71.6,94,29.93,10.0,SSE,6.9,-,N/A,,Mostly Cloudy,150,2013-07-01 16:35:00
12:55 PM,77.0,73.4,89,29.92,10.0,South,6.9,-,N/A,,Scattered Clouds,170,2013-07-01 16:55:00
1:15 PM,78.8,71.6,78,29.92,10.0,South,6.9,-,N/A,,Scattered Clouds,180,2013-07-01 17:15:00
1:35 PM,78.8,71.6,78,29.92,10.0,SE,11.5,-,N/A,,Scattered Clouds,130,2013-07-01 17:35:00
1:55 PM,80.6,71.6,74,29.92,10.0,South,6.9,-,N/A,,Mostly Cloudy,180,2013-07-01 17:55:00
2:15 PM,80.6,69.8,70,29.92,10.0,South,8.1,-,N/A,,Mostly Cloudy,190,2013-07-01 18:15:00
2:35 PM,80.6,69.8,70,29.92,10.0,South,9.2,-,N/A,,Mostly Cloudy,170,2013-07-01 18:35:00
2:55 PM,78.8,69.8,74,29.92,10.0,SSE,9.2,-,N/A,,Mostly Cloudy,160,2013-07-01 18:55:00
3:15 PM,80.6,69.8,70,29.92,10.0,SE,10.4,16.1,N/A,,Scattered Clouds,140,2013-07-01 19:15:00
3:35 PM,80.6,69.8,70,29.92,10.0,SSE,9.2,16.1,N/A,,Scattered Clouds,150,2013-07-01 19:35:00
3:55 PM,80.6,69.8,70,29.92,10.0,South,11.5,17.3,N/A,,Clear,170,2013-07-01 19:55:00
4:15 PM,80.6,69.8,70,29.92,10.0,SSE,9.2,-,N/A,,Clear,160,2013-07-01 20:15:00
4:35 PM,80.6,69.8,70,29.92,10.0,South,10.4,-,N/A,,Scattered Clouds,170,2013-07-01 20:35:00
4:55 PM,80.6,69.8,70,29.92,10.0,SE,12.7,-,N/A,,Clear,140,2013-07-01 20:55:00
5:15 PM,80.6,69.8,70,29.91,10.0,SE,9.2,16.1,N/A,,Scattered Clouds,140,2013-07-01 21:15:00
5:35 PM,82.4,71.6,70,29.91,10.0,SSE,12.7,17.3,N/A,,Scattered Clouds,160,2013-07-01 21:35:00
5:55 PM,80.6,69.8,70,29.92,10.0,SSE,10.4,17.3,N/A,,Scattered Clouds,160,2013-07-01 21:55:00
6:15 PM,80.6,69.8,70,29.92,10.0,SSE,10.4,16.1,N/A,,Clear,160,2013-07-01 22:15:00
6:35 PM,78.8,69.8,74,29.92,10.0,SSE,12.7,19.6,N/A,,Clear,150,2013-07-01 22:35:00
6:55 PM,78.8,69.8,74,29.93,10.0,SSE,9.2,-,N/A,,Scattered Clouds,150,2013-07-01 22:55:00
7:15 PM,80.6,69.8,70,29.93,10.0,SE,8.1,-,N/A,,Scattered Clouds,140,2013-07-01 23:15:00
7:35 PM,78.8,69.8,74,29.93,10.0,SSE,9.2,-,N/A,,Scattered Clouds,150,2013-07-01 23:35:00
7:55 PM,77.0,69.8,78,29.93,10.0,SSE,8.1,-,N/A,,Clear,150,2013-07-01 23:55:00
8:15 PM,77.0,69.8,78,29.94,10.0,SSE,8.1,-,N/A,,Clear,150,2013-07-02 00:15:00
8:35 PM,77.0,69.8,78,29.95,10.0,SE,5.8,-,N/A,,Clear,130,2013-07-02 00:35:00
8:55 PM,75.2,69.8,83,29.95,10.0,SSE,4.6,-,N/A,,Mostly Cloudy,150,2013-07-02 00:55:00
9:15 PM,75.2,69.8,83,29.95,10.0,SE,6.9,-,N/A,,Scattered Clouds,140,2013-07-02 01:15:00
9:35 PM,75.2,69.8,83,29.96,10.0,SSE,4.6,-,N/A,,Clear,150,2013-07-02 01:35:00
9:55 PM,73.4,69.8,88,29.96,10.0,SSE,5.8,-,N/A,,Clear,150,2013-07-02 01:55:00
10:15 PM,75.2,69.8,83,29.97,10.0,SE,5.8,-,N/A,,Clear,140,2013-07-02 02:15:00
10:35 PM,73.4,69.8,88,29.97,10.0,East,3.5,-,N/A,,Clear,90,2013-07-02 02:35:00
10:55 PM,73.4,71.6,94,29.97,10.0,ESE,5.8,-,N/A,,Clear,110,2013-07-02 02:55:00
11:15 PM,73.4,71.6,94,29.97,10.0,SE,3.5,-,N/A,,Scattered Clouds,140,2013-07-02 03:15:00
11:35 PM,73.4,71.6,94,29.97,10.0,SE,6.9,-,N/A,,Mostly Cloudy,140,2013-07-02 03:35:00
11:55 PM,73.4,71.6,94,29.98,10.0,SE,8.1,-,N/A,,Mostly Cloudy,140,2013-07-02 03:55:00